Content
SEND FEEDBACK

Daily
Averages
Monthly
Summary
United States of America

SLIPPERY ROCK, PENNSYLVANIA


Home > North America > United States > Pennsylvania
Elevation: 1250 feet     Latitude: 41 03N     Longitude: 080 04W

WEATHER
 
SELECT A DAY
Number of Records: 436,370;   Date Range: 1/1/95 - 7/20/14
 
SHARE

PRINT THIS DATA

[ ← Previous Day ]
WEATHER ALMANAC - FEBRUARY 13, 2013
[ Next Day → ]
[ °C ]   °F
Weather ElementAverageHighLow
Temperature28.8 °F37.4 °F (1:55 pm)19.4 °F (4:15 am)
Dewpoint22.5 °F28.4 °F (5:15 pm)15.8 °F (6:35 am)
Humidity77.9 %93 % (1:35 am)60 % (1:55 pm)
Barometer29.78 in29.90 in (12:35 am)29.68 in (3:15 pm)
Wind Speed4.1 mph8.1 mph (9:15 am)
Weather ElementAverage
Visibility7.8 mi
Wind DirectionESE (115 °)

Weather ElementTotal
Precipitation---
Heating Degree Days36.6 (Base 65)
Averaged from 70 records on February 13, 2013
WEATHER CONDITIONS BREAKOUT
WIND DIRECTION BREAKOUT
WEATHER BY HOUR - FEBRUARY 13, 2013
[ °C ]   °F
Local TimeTemperatureDewpointHumidityBarometerVisibilityWind DirectionWind SpeedGust SpeedPrecipitationEventsConditions
12:35 AM26.6 °F21.2 °F80 %29.90 in10.0 miSE (140°)4.6 mphClear
12:55 AM26.6 °F19.4 °F74 %29.90 in10.0 miCalmClear
1:15 AM23.0 °F17.6 °F80 %29.89 in9.0 miNNE (30°)3.5 mphClear
1:35 AM21.2 °F19.4 °F93 %29.89 in7.0 miNNE (20°)3.5 mphClear
1:55 AM21.2 °F19.4 °F93 %29.88 in7.0 miNNE (30°)4.6 mphClear
2:15 AM21.2 °F17.6 °F86 %29.88 in6.0 miNE (40°)4.6 mphClear
2:35 AM21.2 °F19.4 °F93 %29.87 in6.0 miNNE (20°)4.6 mphClear
2:55 AM21.2 °F19.4 °F93 %29.86 in5.0 miCalmClear
3:15 AM21.2 °F17.6 °F86 %29.86 in6.0 miCalmClear
3:35 AM21.2 °F17.6 °F86 %29.85 in6.0 miNE (40°)3.5 mphClear
3:55 AM21.2 °F17.6 °F86 %29.85 in5.0 miNNE (20°)4.6 mphClear
4:15 AM19.4 °F17.6 °F93 %29.85 in5.0 miNorth (10°)3.5 mphClear
4:35 AM21.2 °F17.6 °F86 %29.86 in5.0 miNorth (10°)3.5 mphClear
4:55 AM21.2 °F17.6 °F86 %29.85 in5.0 miNE (40°)5.8 mphClear
5:15 AM21.2 °F17.6 °F86 %29.85 in5.0 miENE (60°)4.6 mphClear
5:35 AM19.4 °F17.6 °F93 %29.85 in5.0 miNE (40°)4.6 mphClear
5:55 AM19.4 °F17.6 °F93 %29.84 in6.0 miNE (50°)4.6 mphClear
6:15 AM21.2 °F17.6 °F86 %29.84 in5.0 miNE (40°)5.8 mphClear
6:35 AM19.4 °F15.8 °F86 %29.82 in5.0 miNE (40°)6.9 mphClear
7:15 AM23.0 °F19.4 °F86 %29.81 in7.0 miENE (60°)4.6 mphClear
7:35 AM23.0 °F21.2 °F93 %29.81 in5.0 miCalmClear
7:55 AM24.8 °F19.4 °F80 %29.81 in5.0 miNNE (30°)5.8 mphClear
8:15 AM24.8 °F19.4 °F80 %29.80 in5.0 miNE (50°)3.5 mphClear
8:35 AM24.8 °F21.2 °F86 %29.79 in5.0 miNE (40°)3.5 mphClear
8:55 AM24.8 °F21.2 °F86 %29.78 in5.0 miNNE (30°)5.8 mphClear
9:15 AM26.6 °F21.2 °F80 %29.77 in5.0 miNNE (30°)8.1 mphClear
9:35 AM26.6 °F23.0 °F86 %29.75 in6.0 miNE (40°)8.1 mphClear
9:55 AM28.4 °F24.8 °F86 %29.76 in7.0 miNE (50°)4.6 mphClear
10:15 AM30.2 °F23.0 °F75 %29.78 in9.0 miNE (50°)5.8 mphMostly Cloudy
10:35 AM30.2 °F24.8 °F80 %29.79 in10.0 miNE (40°)5.8 mphScattered Clouds
10:55 AM30.2 °F24.8 °F80 %29.78 in10.0 miNE (40°)5.8 mphClear
11:15 AM32.0 °F26.6 °F80 %29.77 in10.0 miNE (40°)8.1 mphClear
11:35 AM33.8 °F24.8 °F70 %29.78 in10.0 miCalmClear
11:55 AM33.8 °F24.8 °F70 %29.77 in10.0 miNE (40°)4.6 mphClear
12:15 PM35.6 °F24.8 °F65 %29.76 in10.0 miNNE (20°)5.8 mphClear
12:35 PM35.6 °F24.8 °F65 %29.75 in10.0 miEast (80°)3.5 mphClear
12:55 PM35.6 °F24.8 °F65 %29.74 in10.0 miNNE (20°)3.5 mphClear
1:15 PM35.6 °F26.6 °F70 %29.71 in10.0 miNNE (20°)4.6 mphClear
1:35 PM35.6 °F24.8 °F65 %29.70 in10.0 miNNE (20°)5.8 mphPartly Cloudy
1:55 PM37.4 °F24.8 °F60 %29.70 in10.0 miCalmPartly Cloudy
2:15 PM37.4 °F24.8 °F60 %29.69 in10.0 miCalmScattered Clouds
2:35 PM37.4 °F24.8 °F60 %29.69 in10.0 miCalmScattered Clouds
2:55 PM37.4 °F24.8 °F60 %29.69 in10.0 miNW (310°)3.5 mphMostly Cloudy
3:15 PM37.4 °F24.8 °F60 %29.68 in10.0 miCalmMostly Cloudy
3:35 PM37.4 °F26.6 °F65 %29.68 in10.0 miCalmMostly Cloudy
3:55 PM37.4 °F24.8 °F60 %29.69 in10.0 miSSW (210°)3.5 mphOvercast
4:15 PM37.4 °F26.6 °F65 %29.68 in10.0 miWSW (250°)5.8 mphMostly Cloudy
4:35 PM35.6 °F26.6 °F70 %29.69 in9.0 miWSW (250°)5.8 mphMostly Cloudy
4:55 PM35.6 °F26.6 °F70 %29.70 in6.0 miWSW (250°)5.8 mphOvercast
5:15 PM33.8 °F28.4 °F81 %29.71 in5.0 miSW (220°)4.6 mphOvercast
5:35 PM33.8 °F28.4 °F81 %29.71 in2.5 miWest (260°)5.8 mphMostly Cloudy
5:55 PM33.8 °F28.4 °F81 %29.71 in3.0 miWest (280°)3.5 mphPartly Cloudy
6:15 PM33.8 °F28.4 °F81 %29.71 in7.0 miCalmClear
6:35 PM33.8 °F28.4 °F81 %29.71 in7.0 miWest (260°)3.5 mphClear
6:55 PM33.8 °F28.4 °F81 %29.73 in7.0 miWest (260°)3.5 mphClear
7:15 PM33.8 °F26.6 °F75 %29.73 in8.0 miWest (280°)4.6 mphClear
7:35 PM33.8 °F26.6 °F75 %29.74 in9.0 miWest (280°)4.6 mphClear
7:55 PM32.0 °F24.8 °F75 %29.75 in10.0 miWNW (300°)5.8 mphClear
8:15 PM32.0 °F24.8 °F75 %29.76 in10.0 miWest (270°)3.5 mphClear
8:35 PM30.2 °F23.0 °F75 %29.77 in10.0 miWest (280°)4.6 mphClear
8:55 PM30.2 °F21.2 °F69 %29.78 in10.0 miWest (270°)4.6 mphClear
9:15 PM30.2 °F21.2 °F69 %29.78 in10.0 miWest (280°)5.8 mphClear
9:35 PM28.4 °F21.2 °F74 %29.79 in10.0 miWest (260°)3.5 mphClear
9:55 PM28.4 °F21.2 °F74 %29.79 in10.0 miWest (270°)4.6 mphClear
10:15 PM28.4 °F21.2 °F74 %29.80 in10.0 miWest (280°)8.1 mphClear
10:35 PM28.4 °F21.2 °F74 %29.81 in10.0 miWest (280°)3.5 mphClear
10:55 PM26.6 °F21.2 °F80 %29.81 in10.0 miWest (280°)4.6 mphClear
11:15 PM26.6 °F21.2 °F80 %29.82 in8.0 miWest (270°)4.6 mphClear
11:35 PM26.6 °F21.2 °F80 %29.83 in7.0 miWNW (290°)4.6 mphClear
11:55 PM26.6 °F21.2 °F80 %29.83 in8.0 miWest (280°)5.8 mphClear
Hourly data recorded from KBTP, located miles away from Slippery Rock, Pennsylvania







STORIES FROM OUR PARTNERS